AirNav   Phillips 66 Aviation Fuel
 
 1033 users online  

0IL1 Loyola University Medical Center Heliport
Broadview, Illinois, USA

GOING TO BROADVIEW?


FAA INFORMATION EFFECTIVE 04 JANUARY 2018

Location

FAA Identifier: 0IL1
Lat/Long: 41-51-39.1130N / 087-50-11.2130W
41-51.651883N / 087-50.186883W
41.8608647 / -87.8364481
(estimated)
Elevation: 623 ft. / 190 m (estimated)
Variation: 01W (1985)
Time zone: UTC -6 (UTC -5 during Daylight Saving Time)
Zip code: 60141

Heliport Operations

Heliport use: Private use, MEDICAL USE.
Activation date: 11/1989
Control tower: no
ARTCC: CHICAGO CENTER
FSS: KANKAKEE FLIGHT SERVICE STATION
Attendance: CONTINUOUS
Wind indicator: lighted
Segmented circle: no
Beacon: white-green-yellow (heliport)
24 HRS

Heliport Communications

UNICOM: 123.05
WX ASOS at MDW (6 nm SE): PHONE 773-884-4424
WX ASOS at ORD (8 nm NW): PHONE 773-462-0118
WX AWOS-3 at 06C (14 nm NW): 128.275 ((847) 895-2887)
WX ASOS at PWK (15 nm N): PHONE 847-465-0291
WX ASOS at DPA (19 nm W): PHONE 630-584-2728
WX AWOS-3 at LOT (19 nm SW): 118.525 (815-588-4802)

Nearby radio navigation aids

VOR radial/distance  VOR name  Freq  Var
ORDr156/8.2CHICAGO O'HARE VOR/DME113.9002E
OBKr169/22.2NORTHBROOK VOR/DME113.0002W
DPAr092/23.0DUPAGE VOR/DME108.4002E
CGTr329/24.2CHICAGO HEIGHTS VORTAC114.2002E
JOTr047/28.7JOLIET VORTAC112.3002E
EONr355/35.5PEOTONE VORTAC113.2002E

Heliport Services

Runway Information

Helipad H1

Dimensions: 90 x 90 ft. / 27 x 27 m
Surface: concrete
Runway edge lights: PERIMETER LIGHTS.
Latitude: 41-51.651883N
Longitude: 087-50.186883W
Elevation: 623.0 ft.
Traffic pattern: leftleft

Heliport Ownership and Management from official FAA records

Ownership: Privately-owned
Owner: LOYOLA UNIVERSITY MED CENTER
2160 S 1ST AVENUE
MAYWOOD, IL 60153
Phone 708-216-5862
Manager: DAVE NIKSIC
2160 S 1ST AVENUE
MAYWOOD, IL 60153
Phone (708) 216-9503
CONTACT 701-216-9000 PHYSICAL PLANT AND GROUNDS

Heliport Operational Statistics

Aircraft based on the field: 1
Multi engine airplanes: 1
    

Instrument Procedures

There are no published instrument procedures at 0IL1.

Some nearby airports with instrument procedures:

KMDW - Chicago Midway International Airport (6 nm SE)
KORD - Chicago O'Hare International Airport (8 nm NW)
KPWK - Chicago Executive Airport (15 nm N)
1C5 - Bolingbrook's Clow International Airport (16 nm SW)
KDPA - DuPage Airport (19 nm W)
KLOT - Lewis University Airport (19 nm SW)
 
Loc | Ops | Rwys | IFR | FBO | Links
Com | Nav | Svcs | Stats | Notes


 
Area around 0IL1 (Loyola University Medical Center Heliport)
 
Road maps at: MapQuest Bing Google
 
Aerial photo
No photo
 
Sectional chart

 
Airport distance calculator
Flying to Loyola University Medical Center Heliport? Find the distance to fly.

From to 0IL1

Sunrise and sunset
Times for 20-Jan-2018
 Local
(UTC-6)
 Zulu
(UTC)
Morning civil twilight06:4412:44
Sunrise07:1513:15
Sunset16:5022:50
Evening civil twilight17:2023:20

Current date and time
Zulu (UTC)  20-Jan-2018 17:02:44
Local (UTC-6)  20-Jan-2018 11:02:44
 
METAR
KMDW 
6nm SE 
201653Z 22008KT 10SM FEW150 BKN250 06/M01 A2995 RMK AO2 SLP148 T00561006
KORD 
9nm NW 
201651Z 24007KT 10SM FEW150 SCT210 BKN250 05/M02 A2993 RMK AO2 SLP140 T00501017
4IS3 
11nm SE 
SuperAWOS
201635Z AUTO 23013G21KT 140V320 04/00 A2995
K06C 
14nm NW 
201655Z AUTO 23006KT 10SM CLR 05/M01 A2993 RMK AO2 T00451015
KPWK 
16nm N 
201652Z 22008KT 10SM CLR 06/M01 A2994 RMK AO2 SLP143 T00561011
KDPA 
19nm W 
201652Z 24009KT 8SM CLR 03/M01 A2993 RMK AO2 SLP143 T00281011
KLOT 
19nm SW 
201655Z AUTO 23008KT 10SM CLR 04/00 A2996 RMK AO2 T00430000
TAF
KMDW 
6nm SE 
201501Z 2015/2118 23008KT P6SM BKN250 FM210000 21006KT P6SM OVC012 FM210400 20005KT 4SM BR OVC007 FM210900 16004KT 2SM -DZ BR OVC004
KORD 
9nm NW 
201501Z 2015/2118 23008KT P6SM BKN250 FM210100 21006KT P6SM OVC012 FM210500 20005KT 4SM BR OVC007 FM211000 16004KT 2SM -DZ BR OVC004
KDPA 
19nm W 
201501Z 2015/2112 22007KT P6SM BKN250 FM210000 21006KT P6SM OVC012 FM210400 20005KT 4SM BR OVC007 FM210900 16004KT 2SM -DZ BR OVC004
NOTAMs
Click for the latest NOTAMs
NOTAMs are issued by the DoD/FAA and will open in a separate window not controlled by AirNav.

 

 
 

Would you like to see your business listed on this page?

 If your business provides an interesting product or service to pilots, flight crews, aircraft, or users of the Loyola University Medical Center Heliport, you should consider listing it here.  To start the listing process, click on the button below
 
Add a business
 

Other Pages about Loyola University Medical Center Heliport

Update a link
 
Copyright © AirNav, LLC. All rights reserved. Privacy Policy  Contact